Weather History for Cork, Ireland

Change the Weather History Date:

Tuesday, March 26, 2013

  Actual Average Record
Temperature  
Mean Temperature 34 °F -  
Max Temperature 39 °F 52 °F 57 °F (1997)
Min Temperature 29 °F 40 °F 29 °F (2013)
Degree Days  
Heating Degree Days 31    
Moisture  
Dew Point 28 °F    
Average Humidity 79    
Maximum Humidity 100    
Minimum Humidity 60    
Precipitation  
Precipitation 0.01 in 0.10 in - ()
Sea Level Pressure  
Sea Level Pressure 29.97 in    
Wind  
Wind Speed 14 mph ()    
Max Wind Speed 20 mph    
Max Gust Speed -    
Visibility 6.3 miles    
Events Rain , Snow    
Averages and records for this station are not official NWS values.
T = Trace of Precipitation, MM = Missing Value Source: Averaged Metar Reports

Daily Weather History Graph

Daily Weather History Graph

Search for Another Location

Airport:

Trip Planner

Search our weather history database for the weather conditions in past years. The results will help you decide how hot, cold, wet, or windy it might be!

Date:

Astronomy

Mar. 26, 2013 Rise Set
Actual Time 6:22 AM GMT 6:57 PM GMT
Civil Twilight 5:48 AM GMT 7:31 PM GMT
Nautical Twilight 5:08 AM GMT 8:11 PM GMT
Astronomical Twilight 4:25 AM GMT 8:54 PM GMT
Moon 6:19 PM GMT (3/26) 5:35 AM GMT (3/26)
Length of Visible Light 13h 42m
Length of Day
12h 35m
Waxing Gibbous, 99% of the Moon is Illuminated
Mar 26
Waxing Gibbous
Mar 27
Full
Apr 3
Last Quarter
Apr 10
New
Apr 18
First Quarter

Hourly Weather History & Observations

Time (GMT) Temp. Windchill Dew Point Humidity Pressure Visibility Wind Dir Wind Speed Gust Speed Precip Events Conditions
12:00 AM 34 °F - 26 °F 62% 30.01 in 19 mi ENE 15.7 mph - -   Mostly Cloudy
12:00 AM 33.8 °F 23.5 °F 26.6 °F 75% 29.98 in 6.2 mi ENE 16.1 mph - N/A   Mostly Cloudy
12:30 AM 33.8 °F 24.8 °F 24.8 °F 70% 29.98 in 6.2 mi ENE 12.7 mph - N/A   Mostly Cloudy
1:00 AM 33.8 °F 23.9 °F 26.6 °F 75% 29.98 in 6.2 mi ENE 15.0 mph - N/A   Mostly Cloudy
1:30 AM 33.8 °F 23.2 °F 26.6 °F 75% 29.98 in 6.2 mi ENE 17.3 mph - N/A Rain Light Rain Showers
2:00 AM 33.8 °F 23.9 °F 26.6 °F 75% 29.98 in 6.2 mi ENE 15.0 mph - N/A Rain Light Rain Showers
2:30 AM 32.0 °F 21.6 °F 28.4 °F 87% 29.98 in 6.2 mi NE 15.0 mph - N/A Snow Light Snow
3:00 AM 32.0 °F 21.6 °F 28.4 °F 87% 29.98 in 3.7 mi NE 15.0 mph - N/A Snow Light Snow
3:30 AM 30.2 °F 19.3 °F 28.4 °F 93% 29.98 in 2.5 mi NE 15.0 mph - N/A Snow Light Snow
4:00 AM 30.2 °F 19.3 °F 30.2 °F 100% 29.98 in 2.2 mi NE 15.0 mph - N/A Snow Light Snow
4:30 AM 30.2 °F 18.9 °F 28.4 °F 93% 29.98 in 5.6 mi NE 16.1 mph - N/A Snow Light Snow
5:00 AM 30.2 °F 19.8 °F 28.4 °F 93% 29.98 in 6.2 mi NE 13.8 mph - N/A Snow Light Snow
5:30 AM 30.2 °F 19.8 °F 28.4 °F 93% 29.98 in 6.2 mi NE 13.8 mph - N/A Snow Light Snow
6:00 AM 30 °F - 29 °F 93% 30.04 in 7 mi NE 13.4 mph - - Snow Light Snow
6:00 AM 30.2 °F 19.8 °F 28.4 °F 93% 29.98 in 6.2 mi NE 13.8 mph - N/A Snow Light Snow
6:30 AM 30.2 °F 20.2 °F 28.4 °F 93% 29.98 in 6.2 mi NE 12.7 mph - N/A   Mostly Cloudy
7:00 AM 30.2 °F 20.8 °F 28.4 °F 93% 29.98 in 6.2 mi NE 11.5 mph - N/A   Mostly Cloudy
7:30 AM 32.0 °F 23.0 °F 26.6 °F 80% 29.98 in 6.2 mi NE 11.5 mph - N/A   Mostly Cloudy
8:00 AM 32.0 °F 21.6 °F 26.6 °F 80% 29.98 in 6.2 mi NE 15.0 mph - N/A   Mostly Cloudy
8:30 AM 32.0 °F 21.2 °F 26.6 °F 80% 29.98 in 6.2 mi NE 16.1 mph - N/A   Mostly Cloudy
9:00 AM 32.0 °F 20.1 °F 26.6 °F 80% 29.98 in 6.2 mi NE 19.6 mph - N/A   Mostly Cloudy
9:30 AM 33.8 °F 23.2 °F 26.6 °F 75% 29.98 in 6.2 mi NE 17.3 mph - N/A   Mostly Cloudy
10:00 AM 33.8 °F 23.2 °F 26.6 °F 75% 29.98 in 6.2 mi ENE 17.3 mph - N/A   Mostly Cloudy
10:30 AM 35.6 °F 24.8 °F 28.4 °F 75% 29.98 in 6.2 mi ENE 19.6 mph - N/A   Mostly Cloudy
11:00 AM 35.6 °F 25.2 °F 26.6 °F 70% 29.98 in 6.2 mi ENE 18.4 mph - N/A   Mostly Cloudy
11:30 AM 35.6 °F 25.2 °F 26.6 °F 70% 29.98 in 6.2 mi ENE 18.4 mph - N/A   Mostly Cloudy
12:00 PM 36 °F - 27 °F 60% 30.01 in 22 mi ENE 20.1 mph - -   Partly Cloudy
12:00 PM 35.6 °F 24.8 °F 26.6 °F 70% 29.98 in 6.2 mi ENE 19.6 mph - N/A   Mostly Cloudy
12:30 PM 35.6 °F 25.5 °F 26.6 °F 70% 29.98 in 6.2 mi ENE 17.3 mph - N/A   Mostly Cloudy
1:00 PM 37.4 °F 27.2 °F 28.4 °F 70% 29.98 in 6.2 mi East 19.6 mph - N/A   Mostly Cloudy
1:30 PM 35.6 °F 25.5 °F 26.6 °F 70% 29.95 in 6.2 mi East 17.3 mph - N/A   Mostly Cloudy
2:00 PM 37.4 °F 27.8 °F 26.6 °F 65% 29.95 in 6.2 mi ENE 17.3 mph - N/A   Mostly Cloudy
2:30 PM 39.2 °F 30.8 °F 30.2 °F 70% 29.95 in 6.2 mi East 15.0 mph - N/A   Mostly Cloudy
3:00 PM 37.4 °F 27.8 °F 26.6 °F 65% 29.95 in 6.2 mi ENE 17.3 mph - N/A   Mostly Cloudy
3:30 PM 35.6 °F 27.1 °F 30.2 °F 81% 29.95 in 6.2 mi NE 12.7 mph - N/A   Mostly Cloudy
4:00 PM 35.6 °F 27.5 °F 30.2 °F 81% 29.95 in 6.2 mi East 11.5 mph - N/A   Mostly Cloudy
4:30 PM 35.6 °F 27.5 °F 30.2 °F 81% 29.95 in 6.2 mi East 11.5 mph - N/A   Mostly Cloudy
5:00 PM 37.4 °F 29.8 °F 28.4 °F 70% 29.95 in 6.2 mi East 11.5 mph - N/A   Mostly Cloudy
5:30 PM 33.8 °F 25.8 °F 28.4 °F 81% 29.95 in 6.2 mi ENE 10.4 mph - N/A   Mostly Cloudy
6:00 PM 35 °F - 29 °F 69% 29.97 in 7 mi ENE 8.9 mph - -   Mostly Cloudy
6:00 PM 33.8 °F 26.4 °F 28.4 °F 81% 29.95 in 6.2 mi ENE 9.2 mph - N/A   Mostly Cloudy
6:30 PM 33.8 °F 25.3 °F 28.4 °F 81% 29.95 in 6.2 mi ENE 11.5 mph - N/A   Mostly Cloudy
7:00 PM 33.8 °F 23.9 °F 26.6 °F 75% 29.95 in 6.2 mi ENE 15.0 mph - N/A   Mostly Cloudy
7:30 PM 33.8 °F 24.3 °F 26.6 °F 75% 29.95 in 6.2 mi NE 13.8 mph - N/A   Mostly Cloudy
8:00 PM 33.8 °F 24.8 °F 26.6 °F 75% 29.95 in 6.2 mi NE 12.7 mph - N/A   Scattered Clouds
8:30 PM 32.0 °F 22.5 °F 26.6 °F 80% 29.95 in 6.2 mi NE 12.7 mph - N/A   Scattered Clouds
9:00 PM 32.0 °F 23.6 °F 26.6 °F 80% 29.95 in 6.2 mi NE 10.4 mph - N/A   Partly Cloudy
9:30 PM 30.2 °F 20.2 °F 26.6 °F 86% 29.95 in 6.2 mi NE 12.7 mph - N/A   Partly Cloudy
10:00 PM 30.2 °F 20.2 °F 26.6 °F 86% 29.95 in 6.2 mi NNE 12.7 mph - N/A   Scattered Clouds
10:30 PM 30.2 °F 21.3 °F 26.6 °F 86% 29.95 in 6.2 mi NNE 10.4 mph - N/A   Mostly Cloudy
11:00 PM 30.2 °F 20.2 °F 26.6 °F 86% 29.95 in 6.2 mi NNE 12.7 mph - N/A   Mostly Cloudy
11:30 PM 30.2 °F 20.8 °F 26.6 °F 86% 29.95 in 6.2 mi NNE 11.5 mph - N/A   Mostly Cloudy